Flag Weather past 2 weeks in Green Bay, Wisconsin, U.S.A.

Now
25 °F

Ice fog.


Feels Like: 19 °F
Forecast: 28 / 36 °F
Wind: 5 mph from Northeast

Location: Austin Straubel International Airport

Current Time: Nov 28, 2014 at 10:12:23 PM

Latest Report: Nov 28, 2014 at 8:53 PM


Visibility: 4 mi

Pressure: 29.94 "Hg

Humidity: 92%

Dew point: 23 °F

Location of Green BayLocation

Historic Weather in Green Bay — Graph

°F

Green Bay temperature yesterday

Maximum temperature yesterday: 24 °F (at 12:53 AM)
Minimum temperature yesterday: 2 °F (at 10:53 PM)
Average temperature yesterday: 15 °F

Past Weeks' High & Low Weather Summary

 TemperatureHumidityPressure
High49 °F (Nov 23, 9:53 AM)100% (Nov 22, 4:53 PM)30.43 "Hg (Nov 22, 4:53 PM)
Low2 °F (Nov 27, 10:53 PM)42% (Nov 21, 1:53 PM)29.02 "Hg (Nov 24, 4:53 AM)
Average23 °F77%29.98 "Hg
* Reported Nov 13 7:53 PM — Nov 28 7:53 PM, Green Bay, Weather by CustomWeather, © 2014

Note: Actual official high and low records may vary slightly from our data, if they occured in-between our weather recording intervals... More about our weather records

Advertising

Green Bay weather history for previous 24 hours

 ConditionsComfort  
Time TempWeatherWind HumidityBarometerVisibility
7:53 PM
Nov 28
26 °FIce fog.No wind88%29.96 "Hg5 mi
6:59 PM25 °FLight snow. Ice fog.3 mph92%29.95 "Hg2 mi
5:53 PM25 °FLight snow. Ice fog.N/A92%30.00 "Hg3 mi
4:53 PM25 °FLight snow. Ice fog.No wind88%30.00 "Hg3 mi
3:53 PM25 °FLight snow. Ice fog.No wind88%30.02 "Hg1 mi
3:00 PM24 °FSnow. Ice fog.No wind88%29.99 "Hg1 mi
2:01 PM23 °FLight snow. Ice fog.7 mph85%30.00 "Hg2 mi
1:01 PM20 °FLight snow. Ice fog.6 mph85%30.04 "Hg1 mi
11:53 AM19 °FOvercast.10 mph81%30.14 "Hg10 mi
10:53 AM18 °FLight snow. Ice fog.9 mph84%30.19 "Hg2 mi
10:02 AM16 °FLight snow. Ice fog.7 mph84%30.17 "Hg4 mi
9:53 AM16 °FLight snow. Ice fog.8 mph84%30.22 "Hg2 mi
8:53 AM14 °FLight snow. Ice fog.7 mph84%30.25 "Hg2 mi
8:00 AM13 °FLight snow. Mostly cloudy.7 mph81%30.21 "Hg2 mi
6:53 AM12 °FOvercast.5 mph80%30.29 "Hg10 mi
5:53 AM11 °FOvercast.3 mph84%30.31 "Hg10 mi
4:53 AM9 °FOvercast.3 mph84%30.32 "Hg10 mi
3:53 AM9 °FOvercast.6 mph80%30.35 "Hg10 mi
2:53 AM7 °FOvercast.3 mph83%30.39 "Hg10 mi
1:53 AM5 °FClear.No wind87%30.39 "Hg7 mi
12:53 AM4 °FClear.No wind80%30.39 "Hg10 mi
11:53 PM
Nov 27
2 °FClear.No wind83%30.40 "Hg10 mi
10:53 PM2 °FClear.No wind88%30.40 "Hg10 mi
Weather by CustomWeather, © 2014

See weather overviewHow to use our weather pages